Voltar ao catálogo

CZ-2C YXX STAGE 2

AtivoSSO
NORAD 67647·ROCKET BODY·🇨🇳 China
Este nome de satélite ainda não foi confirmado por fontes oficiais.

Lançado Jan 31, 2026 de Jiuquan Satellite Launch Center

Loading…

Próximas Passagens (próximas 24 horas)

TLE

AtualizadoSource: Space-Track

Época: Sep 14, 2026, 11:26 UTC

1 67647U 26021B   26257.47678756  .00008590  00000-0  23488-3 0  9993
2 67647  97.6368 337.3060 0140930  68.2559 293.3612 15.28121628 34497

Acompanhe CZ-2C YXX STAGE 2 em tempo real com AllMySat

Download on the App Store